Tracking 30995 objects as of 7-Jul-2025
HD Live streaming from Space Station
objects crossing your sky now

OBJECT H

Track OBJECT H now!
10-day predictions


NORAD ID: 53451
Int'l Code: 2022-098H
Perigee: 441.2 km
Apogee: 446.5 km
Inclination: 97.5 °
Period: 93.3 minutes
Semi major axis: 6814 km
RCS: Unknown
Launch date: August 10, 2022
Source: People's Republic of China (PRC)
Launch site: Taiyaun Space Center, China (TSC)
Your satellite tracking list
Your tracking list is empty




NASA's NSSDC Master Catalog

Two Line Element Set (TLE):
1 53451U 22098H   25187.84490939  .00021130  00000-0  47771-3 0  9994
2 53451  97.5451 300.3996 0003946 173.1825 186.9476 15.43186398161344
Source of the keplerian elements: AFSPC